www.pogodaiklimat.ru

Погода и климат >> Архив погоды >> Россия >> Нижегородская область >> Нижний Новгород


АРХИВ ПОГОДЫ в Нижнем Новгороде

Время (UTC), дата Ветер
(напр.,м/с)
 
Видим.   Явления Облачность Т
(С)
Тd
(С)
f
(%)
Тe
(С)
Тes
(С)
Комфортность P
(гПа)
Po
(гПа)
Тmin
(С)
Tmax
(С)
R
(мм)
S
(см)
18 20.03 ЮВ 3-6
{7}
4000 м слабый снег {ливн. осадки} 10/10 200 м
[Frnb Ns]
+0.8 +0.3 96 -4 -4 по сезону 1014.4 994.7
21 20.03 ЮВ 3-7
{7}
4000 м слабый снег 10/10 200 м
[Frnb Ns]
+0.6 +0.3 98 -4 -4 по сезону 1014.5 994.8
00 21.03 ЮВ 2-6
{7}
10 км {снег} 10/10 200 м
[Frnb]
+1.0 +0.7 98 -3 -3 по сезону 1014.8 995.2
03 21.03 ЮВ 3-6
{7}
10 км 10/10 300 м
[St]
+1.1 -0.6 88 -3 -3 по сезону 1015.1 995.5 +0.6 2 32
06 21.03 ЮВ 2-4
{8}
10 км 9/9 600 м
[Sc]
+2.0 -1.1 80 -1 -1 по сезону 1016.0 996.4
09 21.03 ЮВ 2-7
{8}
10 км 8/0
[Ci fib]
+3.8 -2.5 63 +1 +7 по сезону 1016.0 996.5
12 21.03 ЮВ 2-5
{6}
10 км 8/0
[Ac trans Cc]
+4.3 -2.8 60 +2 +5 по сезону 1015.7 996.3
15 21.03 ЮВ 1-3
{5}
10 км 8/0
[Ci fib]
+3.7 -1.9 67 +3 +3 тепло 1016.4 996.9 +5.1
18 21.03 ЮВ 2-3
{6}
10 км 9/0
[Ci fib]
+1.9 -2.1 75 -1 -1 по сезону 1017.5 997.8
21 21.03 ЮВ 1-2
{5}
10 км 9/0
[Ci fib]
+0.4 -2.3 82 -1 -1 по сезону 1018.3 998.5
00 22.03 ЮВ 1-2
{3}
10 км 8/0
[Ac trans]
+0.9 -2.0 81 -1 -1 по сезону 1019.0 999.2
03 22.03 ЮВ 1-3
{3}
10 км 10/10 1000 м
[Sc]
+1.1 -1.8 81 -1 -1 по сезону 1019.9 1000.2 +0.3 30
06 22.03 Ю 1-3
{4}
10 км 10/10 600 м
[Sc]
+2.0 -0.8 82 0 0 тепло 1020.7 1001.0
09 22.03 Ю 2-4
{4}
10 км 1/0
[Ci fib]
+6.6 +0.8 66 +5 +12 тепло 1020.4 1001.0
12 22.03 Ю 1-3
{4}
10 км 8/8 600 м
[Sc]
+8.7 +0.4 56 +8 +9 тепло 1019.8 1000.5
15 22.03 ЮВ 2-4
{5}
10 км 10/0
[Ci fib]
+6.3 -0.8 60 +4 +4 тепло 1019.5 1000.1 +9.8
18 22.03 ЮВ 2-4
{5}
10 км ясно +2.8 -2.4 69 0 0 по сезону 1019.7 1000.0
21 22.03 ЮВ 2-4
{5}
10 км 3/3 600 м
[Sc]
+1.7 -4.1 65 -1 -1 по сезону 1018.8 999.1
00 23.03 Ю 1-3
{5}
10 км 10/10 600 м
[Sc]
+2.3 -4.8 59 +1 +1 тепло 1018.0 998.3
03 23.03 ЮЗ 1-2
{4}
10 км 10/10 600 м
[Sc]
+2.7 -2.8 67 +1 +1 тепло 1016.6 997.0 +1.2 24
06 23.03 Ю 2-5
{6}
10 км слабый снег 10/10 300 м
[Frnb]
+3.2 -1.2 73 0 0 по сезону 1015.8 996.3
09 23.03 СЗ 2-4
{6}
10 км слабый дождь {снег} 10/10 300 м
[Frnb]
+2.2 +1.2 93 -1 -1 по сезону 1016.8 997.2
12 23.03 -4
{6}
10 км {снег, дождь} н/о +4.0 +0.6 78 +1 +3 по сезону 1018.4 998.8
15 23.03 З 2-4
{5}
10 км 9/9 300 м
[Sc]
+5.1 -1.4 63 +3 +3 тепло 1019.1 999.7 +6.2 3
18 23.03 З 1-2
{4}
10 км 9/9 600 м
[Sc]
+4.5 -1.6 65 +4 +4 тепло 1020.1 1000.6
21 23.03 З 2-6
{8}
10 км 9/9 600 м
[Sc]
+4.0 -2.2 64 +2 +2 тепло 1020.5 1000.9
00 24.03 З 1-3
{7}
10 км 3/0
[Ci fib]
+1.5 -1.7 79 -0 -0 тепло 1020.9 1001.2
03 24.03 З 1-3
{5}
10 км ясно +0.2 -2.8 80 -2 -2 по сезону 1021.5 1001.6 +0.2 23
06 24.03 З 2-3
{4}
10 км 8/0
[Ac trans Ci fib]
+2.2 -1.8 75 -1 +2 по сезону 1021.7 1002.0 -0.2
09 24.03 ЮЗ 2-5
{5}
10 км 9/0
[Ac cuf Cc]
+5.7 -3.4 52 +4 +9 тепло 1019.8 1000.4
12 24.03 ЮЗ 2-5
{6}
10 км 10/4 600 м
[Sc As op]
+6.3 -4.8 45 +5 +5 тепло 1018.0 998.6
15 24.03 ЮЗ 2-4
{6}
10 км 10/10 600 м
[Sc]
+5.4 -3.8 51 +3 +3 тепло 1015.0 995.7 +6.5
18 24.03 Ю 2-5
{5}
10 км 10/10 600 м
[Sc]
+4.1 -3.1 59 +2 +2 тепло 1012.2 992.8
21 24.03 З 1-3
{5}
10 км 10/10 600 м
[Sc]
+2.8 -1.1 75 +1 +1 тепло 1009.2 989.7
00 25.03 З 1-3
{5}
1000 м ливневой снег {дождь} 10/10 100 м
[Cb cap]
0.0 -0.6 96 -2 -2 по сезону 1006.7 987.1
03 25.03 С 3-8
{8}
4000 м слабый снег {ливн. осадки} 10/10 200 м
[Frnb Ns]
-1.2 -1.7 96 -6 -6 по сезону 1005.8 986.2 -1.2 3 25
06 25.03 СЗ 2-5
{8}
10 км в посл. час снег {ливн. осадки} 10/10 300 м
[Frnb]
-0.6 -2.1 90 -4 -4 по сезону 1005.8 986.2 -1.4
09 25.03 СЗ 4-8
{9}
10 км 9/8 300 м
[Sc Ac trans]
-1.2 -4.1 81 -7 -6 прохладно 1006.6 987.0
12 25.03 СЗ 4-10
{11}
10 км 9/5 600 м
[Sc Ac trans]
-0.3 -6.5 63 -5 -5 холодно 1006.8 987.2
15 25.03 СЗ 2-5
{10}
10 км 3/0
[Ac trans]
-1.2 -5.2 74 -5 -5 прохладно 1007.3 987.6 +0.5
18 25.03 З 1-3
{5}
10 км 10/5 600 м
[Sc Ac As]
-2.2 -3.7 89 -4 -4 по сезону 1007.9 988.1
21 25.03 СЗ 2-4
{4}
10 км 10/4 600 м
[Sc Ac As]
-2.7 -4.0 91 -7 -7 прохладно 1008.2 988.4
00 26.03 СЗ 2-6
{6}
4000 м слабый снег 10/10 300 м
[Frnb]
-2.4 -3.3 94 -7 -7 по сезону 1008.1 988.3
03 26.03 СЗ 3-6
{8}
10 км {снег} 10/8 300 м
[Sc As op]
-2.0 -3.5 89 -7 -7 прохладно 1009.4 989.6 -2.7 2 23
06 26.03 СЗ 3-7
{8}
10 км {снег} 5/0
[Ac trans Ci fib]
-1.1 -4.7 77 -6 -3 по сезону 1011.0 991.3
09 26.03 З 2-5
{8}
10 км ясно +2.9 -3.3 64 0 +8 по сезону 1010.8 991.4
12 26.03 СЗ 2-5
{8}
10 км 5/5 600 м
[Sc]
+4.3 -7.6 42 +2 +5 по сезону 1010.0 990.6
15 26.03 З 2-6
{9}
10 км 4/4 600 м
[Sc]
+2.8 -7.8 46 +1 +1 по сезону 1008.2 988.8 +4.9
18 26.03 ЮЗ 1-3
{6}
10 км ясно +0.9 -8.1 51 -0 -0 по сезону 1005.8 986.4
21 26.03 ЮЗ 2-6
{7}
10 км ясно +0.7 -7.9 53 -2 -2 по сезону 1000.9 981.5
00 27.03 ЮЗ 3-7
{10}
10 км 10/4 600 м
[Sc Ac trans]
+0.7 -8.4 51 -3 -3 по сезону 996.0 976.7
03 27.03 ЮЗ 2-6
{10}
4000 м слабый снег 10/8 300 м
[Sc Ac trans]
-1.1 -3.7 82 -5 -5 по сезону 991.7 972.4 -1.2 0.3 22
06 27.03 Ю 2-6
{8}
4000 м слабый снег 10/10 300 м
[Frnb]
-0.4 -1.9 90 -4 -4 по сезону 989.9 970.6
09 27.03 ЮЗ 2-4
{6}
2300 м снег 10/10 300 м
[Frnb]
+0.3 0.0 98 -4 -4 прохладно 990.4 971.2
12 27.03 ЮЗ 2-5
{5}
4000 м слабый снег 10/10 300 м
[Frnb]
+0.8 +0.3 96 -3 -3 прохладно 991.6 972.4

 

Местоположение метеостанции Нижний Новгород (Нижегородская область, Россия): широта 56.27 долгота 44.00 высота над уровнем моря 157 м.

В архиве по умолчанию представлена погода в Нижнем Новгороде за последнюю неделю. Архивные данные за месяц целиком и за предыдущие месяцы, начиная с января 2011 года, Вы можете получить, выбрав интересующий диапазон дат из раскрывающегося списка и нажав кнопку "Ввод!".

Внимание! Время в таблицах - всемирное. Для получения местного времени необходимо прибавить поправку, которая в Нижнем Новгороде равна 3 ч.

Смотрите также архив погоды в соседних городах и на ближайших метеорологических станциях:

Погода в Нижнем Новгороде аэропорт (Нижегородская область, Россия) (15 км)
Погода в Дальнем Константиново (Нижегородская область, Россия) (53 км)
Погода в Волжской ГМО (Нижегородская область, Россия) (57 км)
Погода в Семенове (Нижегородская область, Россия) (60 км)
Погода в Павлово (Нижегородская область, Россия) (70 км)
Погода в Лысково (Нижегородская область, Россия) (70 км)
Погода в Арзамасе (Нижегородская область, Россия) (101 км)
Погода в Воскресенском (Нижегородская область, Россия) (106 км)
Погода в Вязниках (Владимирская область, Россия) (113 км)
Погода в Красных Баках (Нижегородская область, Россия) (119 км)

Пояснения к столбцам:

Ветер - указаны скорость ветра в м/с - средняя за 10 мин, порывы в срок и между сроками (в фигурных скобках) и направление, откуда дует ветер: С - северный, СВ - северо-восточный, В - восточный, ЮВ - юго-восточный, Ю - южный, ЮЗ - юго-западный, З - западный, СЗ - северо-западный.
Видимость - горизонтальная дальность видимости в метрах или километрах. При видимости от 1 до 10 км при отсутствии осадков обычно наблюдается дымка, при ухудшении видимости до 1 км и менее - туман. В сухую погоду видимость может ухудшаться дымом, пылью или мглою.
Явления - указаны атмосферные явления, наблюдавшиеся в срок или в последний час перед сроком; фигурными скобками обозначены явления, наблюдавшиеся между сроками (за 1-3 часа до срока); квадратными скобками обозначены град или гололедные отложения с указанием их диаметра в мм.
Облачность - указаны через наклонную черту общая и нижняя облачность в баллах и высота нижней границы облаков в метрах; квадратными скобками обозначены формы облаков: Ci - перистые, Cs - перисто-слоистые, Cc - перисто-кучевые, Ac - высококучевые, As - высокослоистые, Sc - слоисто-кучевые, Ns - слоисто-дождевые, Cu - кучевые, Cb - кучево-дождевые. Подробнее классификацию облаков см. в Атласе облаков (PDF).
T - Температура воздуха - температура, измеренная на высоте 2 м над землей.
Td - Температура точки росы - температура, при понижении до которой содержащийся в воздухе водяной пар достигнет насыщения.
f - Относительная влажность воздуха - влажноcть воздуха, измеренная на высоте 2 м над землей.
Te - Эффективная температура - температура, которую ощущает одетый по сезону человек в тени. Характеристика душности погоды. При расчете учитывается влияние влажности воздуха и скорости ветра на теплоощущения человека.
Tes - Эффективная температура на солнце - температура, которую ощущает человек, с поправкой на солнечный нагрев. Характеристика знойности погоды. Зависит от высоты солнца над горизонтом, облачности и скорости ветра. Ночью, в пасмурную погоду, а также при ветре 12 м/с и более поправка равна нулю.
P - Атмосферное давление - приведенное к уровню моря атмосферное давление.
Po - Атмосферное давление - измеренное на уровне метеостанции атмосферное давление.
Tmin - Минимальная температура - минимум температуры воздуха на высоте 2 м над землей.
Tmax - Максимальная температура - максимум температуры воздуха на высоте 2 м над землей.
R - Количество осадков - Количество выпавших осадков, мм. При наведении курсора мыши на число - период времени, за который выпало указанное количество осадков.
S - Снежный покров - Высота снежного покрова, см. При наведении курсора мыши на число - состояние снежного покрова и степень покрытия местности в баллах.